Time,TemperatureF,DewpointF,PressureIn,WindDirection,WindDirectionDegrees,WindSpeedMPH,WindSpeedGustMPH,Humidity,HourlyPrecipIn,Conditions,Clouds,dailyrainin,SolarRadiationWatts/m^2,SoftwareType,DateUTC
2013-10-02 00:01:00,58.3,51.4,29.87,NW,322,0.0,2.0,78,0.00,,,0.00,0,HR-IXPWINDi_r2_v1.2.,2013-10-02 07:01:00,
2013-10-02 00:06:00,58.0,51.5,29.87,NW,322,1.0,2.0,79,0.00,,,0.00,0,HR-IXPWINDi_r2_v1.2.,2013-10-02 07:06:00,
2013-10-02 00:11:00,57.7,51.2,29.87,NW,322,0.0,2.0,79,0.00,,,0.00,0,HR-IXPWINDi_r2_v1.2.,2013-10-02 07:11:00,
2013-10-02 00:16:00,57.1,50.9,29.87,NW,322,0.0,1.0,80,0.00,,,0.00,0,HR-IXPWINDi_r2_v1.2.,2013-10-02 07:16:00,
2013-10-02 00:21:00,56.9,51.1,29.87,NW,322,0.0,0.0,81,0.00,,,0.00,0,HR-IXPWINDi_r2_v1.2.,2013-10-02 07:21:00,
2013-10-02 00:26:00,56.5,50.7,29.87,NW,322,0.0,0.0,81,0.00,,,0.00,0,HR-IXPWINDi_r2_v1.2.,2013-10-02 07:26:00,
2013-10-02 00:31:00,56.0,50.2,29.87,NW,322,0.0,0.0,81,0.00,,,0.00,0,HR-IXPWINDi_r2_v1.2.,2013-10-02 07:31:00,
2013-10-02 00:37:00,55.5,50.0,29.87,NW,322,0.0,0.0,82,0.00,,,0.00,0,HR-IXPWINDi_r2_v1.2.,2013-10-02 07:37:00,
2013-10-02 00:42:00,55.2,50.1,29.87,NW,322,0.0,0.0,83,0.00,,,0.00,0,HR-IXPWINDi_r2_v1.2.,2013-10-02 07:42:00,
2013-10-02 00:47:00,55.1,50.3,29.87,NW,322,1.0,1.0,84,0.00,,,0.00,0,HR-IXPWINDi_r2_v1.2.,2013-10-02 07:47:00,
2013-10-02 00:52:00,55.2,50.4,29.87,NW,322,1.0,1.0,84,0.00,,,0.00,0,HR-IXPWINDi_r2_v1.2.,2013-10-02 07:52:00,
2013-10-02 00:57:00,55.1,50.3,29.87,NW,322,1.0,2.0,84,0.00,,,0.00,0,HR-IXPWINDi_r2_v1.2.,2013-10-02 07:57:00,
2013-10-02 01:02:00,55.0,50.2,29.88,NW,322,1.0,2.0,84,0.00,,,0.00,0,HR-IXPWINDi_r2_v1.2.,2013-10-02 08:02:00,
2013-10-02 01:08:00,55.0,50.2,29.88,NW,322,1.0,2.0,84,0.00,,,0.00,0,HR-IXPWINDi_r2_v1.2.,2013-10-02 08:08:00,
2013-10-02 01:13:00,55.1,50.3,29.87,NW,322,0.0,1.0,84,0.00,,,0.00,0,HR-IXPWINDi_r2_v1.2.,2013-10-02 08:13:00,
2013-10-02 01:18:00,55.0,49.9,29.88,NW,322,0.0,1.0,83,0.00,,,0.00,0,HR-IXPWINDi_r2_v1.2.,2013-10-02 08:18:00,
2013-10-02 01:23:00,54.9,49.8,29.88,NW,322,0.0,1.0,83,0.00,,,0.00,0,HR-IXPWINDi_r2_v1.2.,2013-10-02 08:23:00,
2013-10-02 01:29:00,54.6,49.5,29.88,NW,322,0.0,1.0,83,0.00,,,0.00,0,HR-IXPWINDi_r2_v1.2.,2013-10-02 08:29:00,
2013-10-02 01:34:00,54.2,49.4,29.88,NW,322,0.0,1.0,84,0.00,,,0.00,0,HR-IXPWINDi_r2_v1.2.,2013-10-02 08:34:00,
2013-10-02 01:39:00,53.9,49.4,29.88,NW,322,0.0,1.0,85,0.00,,,0.00,0,HR-IXPWINDi_r2_v1.2.,2013-10-02 08:39:00,
2013-10-02 01:44:00,54.2,49.7,29.88,NW,322,0.0,2.0,85,0.00,,,0.00,0,HR-IXPWINDi_r2_v1.2.,2013-10-02 08:44:00,
2013-10-02 01:50:00,54.9,50.1,29.88,NW,322,0.0,2.0,84,0.00,,,0.00,0,HR-IXPWINDi_r2_v1.2.,2013-10-02 08:50:00,
2013-10-02 01:55:00,54.8,49.7,29.88,NW,322,0.0,1.0,83,0.00,,,0.00,0,HR-IXPWINDi_r2_v1.2.,2013-10-02 08:55:00,
2013-10-02 02:00:00,54.6,49.5,29.88,NW,322,0.0,2.0,83,0.00,,,0.00,0,HR-IXPWINDi_r2_v1.2.,2013-10-02 09:00:00,
2013-10-02 02:05:00,54.5,49.4,29.87,NW,322,0.0,2.0,83,0.00,,,0.00,0,HR-IXPWINDi_r2_v1.2.,2013-10-02 09:05:00,
2013-10-02 02:11:00,54.4,49.3,29.87,NW,322,0.0,0.0,83,0.00,,,0.00,0,HR-IXPWINDi_r2_v1.2.,2013-10-02 09:11:00,
2013-10-02 02:16:00,54.3,49.2,29.87,NW,322,0.0,0.0,83,0.00,,,0.00,0,HR-IXPWINDi_r2_v1.2.,2013-10-02 09:16:00,
2013-10-02 02:21:00,54.0,49.2,29.87,NW,322,0.0,1.0,84,0.00,,,0.00,0,HR-IXPWINDi_r2_v1.2.,2013-10-02 09:21:00,
2013-10-02 02:26:00,53.9,49.1,29.88,NW,322,0.0,1.0,84,0.00,,,0.00,0,HR-IXPWINDi_r2_v1.2.,2013-10-02 09:26:00,
2013-10-02 02:32:00,53.7,48.9,29.87,NW,322,0.0,1.0,84,0.00,,,0.00,0,HR-IXPWINDi_r2_v1.2.,2013-10-02 09:32:00,
2013-10-02 02:37:00,53.6,48.8,29.87,NW,322,0.0,1.0,84,0.00,,,0.00,0,HR-IXPWINDi_r2_v1.2.,2013-10-02 09:37:00,
2013-10-02 02:42:00,53.6,49.1,29.87,NW,322,0.0,1.0,85,0.00,,,0.00,0,HR-IXPWINDi_r2_v1.2.,2013-10-02 09:42:00,
2013-10-02 02:47:00,53.6,49.1,29.87,NW,322,0.0,1.0,85,0.00,,,0.00,0,HR-IXPWINDi_r2_v1.2.,2013-10-02 09:47:00,
2013-10-02 02:52:00,53.5,49.0,29.87,NW,322,0.0,1.0,85,0.00,,,0.00,0,HR-IXPWINDi_r2_v1.2.,2013-10-02 09:52:00,
2013-10-02 02:58:00,53.3,48.8,29.87,NW,322,0.0,1.0,85,0.00,,,0.00,0,HR-IXPWINDi_r2_v1.2.,2013-10-02 09:58:00,
2013-10-02 03:03:00,53.4,48.9,29.87,NW,322,1.0,1.0,85,0.00,,,0.00,0,HR-IXPWINDi_r2_v1.2.,2013-10-02 10:03:00,
2013-10-02 03:08:00,53.2,48.7,29.87,NW,322,1.0,1.0,85,0.00,,,0.00,0,HR-IXPWINDi_r2_v1.2.,2013-10-02 10:08:00,
2013-10-02 03:13:00,53.2,49.1,29.87,NW,322,1.0,2.0,86,0.00,,,0.00,0,HR-IXPWINDi_r2_v1.2.,2013-10-02 10:13:00,
2013-10-02 03:18:00,53.1,49.0,29.87,NW,322,1.0,2.0,86,0.00,,,0.00,0,HR-IXPWINDi_r2_v1.2.,2013-10-02 10:18:00,
2013-10-02 03:23:00,53.2,49.1,29.87,NW,322,0.0,2.0,86,0.00,,,0.00,0,HR-IXPWINDi_r2_v1.2.,2013-10-02 10:23:00,
2013-10-02 03:29:00,52.8,48.7,29.88,NW,322,0.0,1.0,86,0.00,,,0.00,0,HR-IXPWINDi_r2_v1.2.,2013-10-02 10:29:00,
2013-10-02 03:34:00,52.5,48.4,29.88,NW,322,1.0,1.0,86,0.00,,,0.00,0,HR-IXPWINDi_r2_v1.2.,2013-10-02 10:34:00,
2013-10-02 03:39:00,52.4,48.6,29.88,NW,322,0.0,1.0,87,0.00,,,0.00,0,HR-IXPWINDi_r2_v1.2.,2013-10-02 10:39:00,
2013-10-02 03:44:00,52.5,48.7,29.88,NW,322,1.0,1.0,87,0.00,,,0.00,0,HR-IXPWINDi_r2_v1.2.,2013-10-02 10:44:00,
2013-10-02 03:49:00,52.4,48.6,29.89,NW,322,1.0,1.0,87,0.00,,,0.00,0,HR-IXPWINDi_r2_v1.2.,2013-10-02 10:49:00,
2013-10-02 03:55:00,52.5,48.7,29.89,NW,322,1.0,1.0,87,0.00,,,0.00,0,HR-IXPWINDi_r2_v1.2.,2013-10-02 10:55:00,
2013-10-02 04:00:00,52.4,48.6,29.89,NW,322,0.0,1.0,87,0.00,,,0.00,0,HR-IXPWINDi_r2_v1.2.,2013-10-02 11:00:00,
2013-10-02 04:05:00,52.5,48.7,29.89,NW,322,0.0,1.0,87,0.00,,,0.00,0,HR-IXPWINDi_r2_v1.2.,2013-10-02 11:05:00,
2013-10-02 04:10:00,52.6,48.8,29.89,NW,322,1.0,1.0,87,0.00,,,0.00,0,HR-IXPWINDi_r2_v1.2.,2013-10-02 11:10:00,
2013-10-02 04:15:00,52.6,48.8,29.89,NW,322,0.0,1.0,87,0.00,,,0.00,0,HR-IXPWINDi_r2_v1.2.,2013-10-02 11:15:00,
2013-10-02 04:21:00,53.0,49.5,29.89,NW,322,1.0,2.0,88,0.00,,,0.00,0,HR-IXPWINDi_r2_v1.2.,2013-10-02 11:21:00,
2013-10-02 04:26:00,53.7,49.9,29.89,NW,321,1.0,3.0,87,0.00,,,0.00,0,HR-IXPWINDi_r2_v1.2.,2013-10-02 11:26:00,
2013-10-02 04:31:00,54.1,49.9,29.89,WNW,293,2.0,4.0,86,0.00,,,0.00,0,HR-IXPWINDi_r2_v1.2.,2013-10-02 11:31:00,
2013-10-02 04:37:00,54.8,50.3,29.89,WNW,298,3.0,4.0,85,0.00,,,0.00,0,HR-IXPWINDi_r2_v1.2.,2013-10-02 11:37:00,
2013-10-02 04:42:00,54.8,50.0,29.88,NW,312,4.0,4.0,84,0.00,,,0.00,0,HR-IXPWINDi_r2_v1.2.,2013-10-02 11:42:00,
2013-10-02 04:47:00,54.9,49.8,29.88,NW,326,1.0,4.0,83,0.00,,,0.00,0,HR-IXPWINDi_r2_v1.2.,2013-10-02 11:47:00,
2013-10-02 04:52:00,54.6,49.5,29.88,NW,317,0.0,4.0,83,0.00,,,0.00,0,HR-IXPWINDi_r2_v1.2.,2013-10-02 11:52:00,
2013-10-02 04:57:00,54.3,49.2,29.88,NW,317,0.0,2.0,83,0.00,,,0.00,0,HR-IXPWINDi_r2_v1.2.,2013-10-02 11:57:00,
2013-10-02 05:02:00,54.2,49.4,29.88,NW,307,0.0,3.0,84,0.00,,,0.00,0,HR-IXPWINDi_r2_v1.2.,2013-10-02 12:02:00,
2013-10-02 05:07:00,53.9,49.1,29.88,NW,307,0.0,3.0,84,0.00,,,0.00,0,HR-IXPWINDi_r2_v1.2.,2013-10-02 12:07:00,
2013-10-02 05:13:00,53.5,49.0,29.88,NW,307,0.0,2.0,85,0.00,,,0.00,0,HR-IXPWINDi_r2_v1.2.,2013-10-02 12:13:00,
2013-10-02 05:18:00,53.4,48.9,29.88,NW,307,0.0,1.0,85,0.00,,,0.00,0,HR-IXPWINDi_r2_v1.2.,2013-10-02 12:18:00,
2013-10-02 05:23:00,53.2,49.1,29.88,NW,305,0.0,1.0,86,0.00,,,0.00,0,HR-IXPWINDi_r2_v1.2.,2013-10-02 12:23:00,
2013-10-02 05:28:00,53.2,49.1,29.89,NW,305,0.0,1.0,86,0.00,,,0.00,0,HR-IXPWINDi_r2_v1.2.,2013-10-02 12:28:00,
2013-10-02 05:33:00,53.0,48.9,29.89,NW,305,0.0,1.0,86,0.00,,,0.00,0,HR-IXPWINDi_r2_v1.2.,2013-10-02 12:33:00,
2013-10-02 05:38:00,52.9,49.1,29.89,NW,305,0.0,1.0,87,0.00,,,0.00,0,HR-IXPWINDi_r2_v1.2.,2013-10-02 12:38:00,
2013-10-02 05:44:00,52.6,48.8,29.89,NW,305,0.0,1.0,87,0.00,,,0.00,0,HR-IXPWINDi_r2_v1.2.,2013-10-02 12:44:00,
2013-10-02 05:49:00,52.2,48.7,29.89,NW,305,2.0,2.0,88,0.00,,,0.00,0,HR-IXPWINDi_r2_v1.2.,2013-10-02 12:49:00,
2013-10-02 05:54:00,52.4,48.9,29.89,NW,305,0.0,2.0,88,0.00,,,0.00,0,HR-IXPWINDi_r2_v1.2.,2013-10-02 12:54:00,
2013-10-02 05:59:00,52.7,49.5,29.89,NW,305,1.0,2.0,89,0.00,,,0.00,0,HR-IXPWINDi_r2_v1.2.,2013-10-02 12:59:00,
2013-10-02 06:04:00,53.0,49.5,29.89,NW,305,0.0,2.0,88,0.00,,,0.00,0,HR-IXPWINDi_r2_v1.2.,2013-10-02 13:04:00,
2013-10-02 06:09:00,52.5,49.0,29.90,NW,305,0.0,2.0,88,0.00,,,0.00,0,HR-IXPWINDi_r2_v1.2.,2013-10-02 13:09:00,
2013-10-02 06:14:00,52.4,49.2,29.90,NW,305,1.0,2.0,89,0.00,,,0.00,0,HR-IXPWINDi_r2_v1.2.,2013-10-02 13:14:00,
2013-10-02 06:19:00,52.9,49.7,29.90,NW,305,1.0,2.0,89,0.00,,,0.00,0,HR-IXPWINDi_r2_v1.2.,2013-10-02 13:19:00,
2013-10-02 06:24:00,53.5,50.6,29.90,NW,307,2.0,3.0,90,0.00,,,0.00,0,HR-IXPWINDi_r2_v1.2.,2013-10-02 13:24:00,
2013-10-02 06:30:00,54.1,50.9,29.90,NW,307,1.0,3.0,89,0.00,,,0.00,0,HR-IXPWINDi_r2_v1.2.,2013-10-02 13:30:00,
2013-10-02 06:35:00,54.4,51.2,29.90,NW,311,1.0,3.0,89,0.00,,,0.00,0,HR-IXPWINDi_r2_v1.2.,2013-10-02 13:35:00,
2013-10-02 06:40:00,54.7,51.2,29.90,NW,314,1.0,3.0,88,0.00,,,0.00,0,HR-IXPWINDi_r2_v1.2.,2013-10-02 13:40:00,
2013-10-02 06:45:00,54.7,50.8,29.90,NW,317,1.0,3.0,87,0.00,,,0.00,0,HR-IXPWINDi_r2_v1.2.,2013-10-02 13:45:00,
2013-10-02 06:50:00,54.7,50.8,29.90,WNW,296,3.0,4.0,87,0.00,,,0.00,0,HR-IXPWINDi_r2_v1.2.,2013-10-02 13:50:00,
2013-10-02 06:55:00,54.8,50.9,29.90,WNW,300,2.0,4.0,87,0.00,,,0.00,5,HR-IXPWINDi_r2_v1.2.,2013-10-02 13:55:00,
2013-10-02 07:01:00,54.9,51.0,29.90,NW,306,2.0,4.0,87,0.00,,,0.00,7,HR-IXPWINDi_r2_v1.2.,2013-10-02 14:01:00,
2013-10-02 07:06:00,55.0,50.8,29.90,NW,322,1.0,4.0,86,0.00,,,0.00,11,HR-IXPWINDi_r2_v1.2.,2013-10-02 14:06:00,
2013-10-02 07:11:00,54.6,50.4,29.90,NW,322,1.0,4.0,86,0.00,,,0.00,14,HR-IXPWINDi_r2_v1.2.,2013-10-02 14:11:00,
2013-10-02 07:16:00,55.1,51.2,29.90,NW,322,0.0,3.0,87,0.00,,,0.00,14,HR-IXPWINDi_r2_v1.2.,2013-10-02 14:16:00,
2013-10-02 07:21:00,55.0,50.8,29.90,NW,322,0.0,3.0,86,0.00,,,0.00,16,HR-IXPWINDi_r2_v1.2.,2013-10-02 14:21:00,
2013-10-02 07:26:00,54.8,50.9,29.91,NW,322,0.0,1.0,87,0.00,,,0.00,21,HR-IXPWINDi_r2_v1.2.,2013-10-02 14:26:00,
2013-10-02 07:32:00,54.6,50.7,29.91,NW,322,0.0,1.0,87,0.00,,,0.00,25,HR-IXPWINDi_r2_v1.2.,2013-10-02 14:32:00,
2013-10-02 07:37:00,54.7,50.8,29.91,NW,322,0.0,1.0,87,0.00,,,0.00,28,HR-IXPWINDi_r2_v1.2.,2013-10-02 14:37:00,
2013-10-02 07:42:00,54.9,51.0,29.92,NW,322,0.0,0.0,87,0.00,,,0.00,39,HR-IXPWINDi_r2_v1.2.,2013-10-02 14:42:00,
2013-10-02 07:47:00,55.2,51.3,29.92,NW,322,0.0,0.0,87,0.00,,,0.00,46,HR-IXPWINDi_r2_v1.2.,2013-10-02 14:47:00,
2013-10-02 07:52:00,55.8,51.9,29.93,NW,322,0.0,0.0,87,0.00,,,0.00,49,HR-IXPWINDi_r2_v1.2.,2013-10-02 14:52:00,
2013-10-02 07:57:00,56.4,52.5,29.93,NW,322,0.0,0.0,87,0.00,,,0.00,46,HR-IXPWINDi_r2_v1.2.,2013-10-02 14:57:00,
2013-10-02 08:03:00,57.0,52.5,29.93,NW,322,0.0,1.0,85,0.00,,,0.00,51,HR-IXPWINDi_r2_v1.2.,2013-10-02 15:03:00,
2013-10-02 08:08:00,57.7,53.2,29.93,NW,322,0.0,2.0,85,0.00,,,0.00,51,HR-IXPWINDi_r2_v1.2.,2013-10-02 15:08:00,
2013-10-02 08:13:00,58.4,53.5,29.93,NW,315,0.0,4.0,84,0.00,,,0.00,51,HR-IXPWINDi_r2_v1.2.,2013-10-02 15:13:00,
2013-10-02 08:18:00,58.9,53.7,29.94,NW,315,2.0,4.0,83,0.00,,,0.00,53,HR-IXPWINDi_r2_v1.2.,2013-10-02 15:18:00,
2013-10-02 08:23:00,59.5,53.9,29.94,NW,315,2.0,3.0,82,0.00,,,0.00,53,HR-IXPWINDi_r2_v1.2.,2013-10-02 15:23:00,
2013-10-02 08:29:00,59.9,54.0,29.94,NW,315,2.0,3.0,81,0.00,,,0.00,54,HR-IXPWINDi_r2_v1.2.,2013-10-02 15:29:00,
2013-10-02 08:34:00,60.3,54.4,29.94,NW,315,1.0,3.0,81,0.00,,,0.00,56,HR-IXPWINDi_r2_v1.2.,2013-10-02 15:34:00,
2013-10-02 08:39:00,60.6,54.7,29.94,NW,315,1.0,3.0,81,0.00,,,0.00,65,HR-IXPWINDi_r2_v1.2.,2013-10-02 15:39:00,
2013-10-02 08:44:00,60.8,54.5,29.94,NW,315,0.0,3.0,80,0.00,,,0.00,70,HR-IXPWINDi_r2_v1.2.,2013-10-02 15:44:00,
2013-10-02 08:49:00,61.2,54.9,29.94,NW,315,1.0,2.0,80,0.00,,,0.00,79,HR-IXPWINDi_r2_v1.2.,2013-10-02 15:49:00,
2013-10-02 08:54:00,61.7,55.1,29.94,NW,316,2.0,3.0,79,0.00,,,0.00,90,HR-IXPWINDi_r2_v1.2.,2013-10-02 15:54:00,
2013-10-02 08:59:00,62.2,55.5,29.94,NW,316,1.0,3.0,79,0.00,,,0.00,98,HR-IXPWINDi_r2_v1.2.,2013-10-02 15:59:00,
2013-10-02 09:04:00,62.7,56.0,29.94,NW,316,1.0,3.0,79,0.00,,,0.00,116,HR-IXPWINDi_r2_v1.2.,2013-10-02 16:04:00,
2013-10-02 09:10:00,63.1,56.4,29.94,NW,316,0.0,2.0,79,0.00,,,0.00,128,HR-IXPWINDi_r2_v1.2.,2013-10-02 16:10:00,
2013-10-02 09:15:00,64.0,57.3,29.94,NW,317,1.0,3.0,79,0.00,,,0.00,130,HR-IXPWINDi_r2_v1.2.,2013-10-02 16:15:00,
2013-10-02 09:20:00,64.4,57.7,29.94,NW,317,1.0,3.0,79,0.00,,,0.00,149,HR-IXPWINDi_r2_v1.2.,2013-10-02 16:20:00,
2013-10-02 09:25:00,64.7,57.6,29.94,NW,317,0.0,3.0,78,0.00,,,0.00,174,HR-IXPWINDi_r2_v1.2.,2013-10-02 16:25:00,
2013-10-02 09:30:00,65.0,57.6,29.94,NW,315,0.0,2.0,77,0.00,,,0.00,188,HR-IXPWINDi_r2_v1.2.,2013-10-02 16:30:00,
2013-10-02 09:36:00,65.6,57.8,29.94,NW,319,1.0,2.0,76,0.00,,,0.00,220,HR-IXPWINDi_r2_v1.2.,2013-10-02 16:36:00,
2013-10-02 09:41:00,65.9,57.7,29.94,WNW,287,0.0,1.0,75,0.00,,,0.00,258,HR-IXPWINDi_r2_v1.2.,2013-10-02 16:41:00,
2013-10-02 09:46:00,66.0,58.2,29.94,ESE,105,0.0,1.0,76,0.00,,,0.00,229,HR-IXPWINDi_r2_v1.2.,2013-10-02 16:46:00,
2013-10-02 09:51:00,66.3,57.7,29.94,SSE,152,3.0,3.0,74,0.00,,,0.00,185,HR-IXPWINDi_r2_v1.2.,2013-10-02 16:51:00,
2013-10-02 09:56:00,65.6,57.4,29.94,SSE,156,2.0,3.0,75,0.00,,,0.00,190,HR-IXPWINDi_r2_v1.2.,2013-10-02 16:56:00,
2013-10-02 10:01:00,65.9,57.3,29.94,SSE,166,0.0,5.0,74,0.00,,,0.00,510,HR-IXPWINDi_r2_v1.2.,2013-10-02 17:01:00,
2013-10-02 10:07:00,66.8,57.8,29.94,East,84,0.0,5.0,73,0.00,,,0.00,503,HR-IXPWINDi_r2_v1.2.,2013-10-02 17:07:00,
2013-10-02 10:12:00,67.7,57.5,29.93,South,169,0.0,4.0,70,0.00,,,0.00,531,HR-IXPWINDi_r2_v1.2.,2013-10-02 17:12:00,
2013-10-02 10:17:00,67.9,58.5,29.93,South,191,1.0,4.0,72,0.00,,,0.00,552,HR-IXPWINDi_r2_v1.2.,2013-10-02 17:17:00,
2013-10-02 10:22:00,69.0,58.7,29.93,ESE,113,0.0,6.0,70,0.00,,,0.00,564,HR-IXPWINDi_r2_v1.2.,2013-10-02 17:22:00,
2013-10-02 10:27:00,68.5,58.3,29.93,South,171,2.0,6.0,70,0.00,,,0.00,571,HR-IXPWINDi_r2_v1.2.,2013-10-02 17:27:00,
2013-10-02 10:33:00,67.9,58.5,29.93,SSE,150,1.0,4.0,72,0.00,,,0.00,568,HR-IXPWINDi_r2_v1.2.,2013-10-02 17:33:00,
2013-10-02 10:38:00,69.1,58.0,29.93,SSE,167,1.0,4.0,68,0.00,,,0.00,552,HR-IXPWINDi_r2_v1.2.,2013-10-02 17:38:00,
2013-10-02 10:43:00,69.1,58.4,29.93,SSE,161,4.0,5.0,69,0.00,,,0.00,522,HR-IXPWINDi_r2_v1.2.,2013-10-02 17:43:00,
2013-10-02 10:48:00,69.8,58.3,29.93,South,175,0.0,5.0,67,0.00,,,0.00,501,HR-IXPWINDi_r2_v1.2.,2013-10-02 17:48:00,
2013-10-02 10:53:00,70.2,59.1,29.93,SSE,165,3.0,5.0,68,0.00,,,0.00,487,HR-IXPWINDi_r2_v1.2.,2013-10-02 17:53:00,
2013-10-02 10:59:00,70.1,58.6,29.93,NNW,336,1.0,4.0,67,0.00,,,0.00,478,HR-IXPWINDi_r2_v1.2.,2013-10-02 17:59:00,
2013-10-02 11:04:00,71.2,58.8,29.92,SSW,192,2.0,5.0,65,0.00,,,0.00,499,HR-IXPWINDi_r2_v1.2.,2013-10-02 18:04:00,
2013-10-02 11:09:00,70.2,57.8,29.93,South,186,1.0,6.0,65,0.00,,,0.00,520,HR-IXPWINDi_r2_v1.2.,2013-10-02 18:09:00,
2013-10-02 11:14:00,72.6,58.8,29.92,East,96,1.0,6.0,62,0.00,,,0.00,557,HR-IXPWINDi_r2_v1.2.,2013-10-02 18:14:00,
2013-10-02 11:19:00,72.0,58.7,29.92,East,88,1.0,5.0,63,0.00,,,0.00,591,HR-IXPWINDi_r2_v1.2.,2013-10-02 18:19:00,
2013-10-02 14:57:00,73.5,59.2,29.85,South,172,9.0,9.0,61,0.00,,,0.00,568,HR-IXPWINDi_r2_v1.2.,2013-10-02 21:57:00,
2013-10-02 15:02:00,73.4,60.0,29.85,South,191,3.0,9.0,63,0.00,,,0.00,552,HR-IXPWINDi_r2_v1.2.,2013-10-02 22:02:00,
2013-10-02 15:08:00,74.3,59.5,29.85,ESE,107,1.0,9.0,60,0.00,,,0.00,543,HR-IXPWINDi_r2_v1.2.,2013-10-02 22:08:00,
2013-10-02 15:13:00,74.8,59.5,29.85,SSE,164,5.0,12.0,59,0.00,,,0.00,531,HR-IXPWINDi_r2_v1.2.,2013-10-02 22:13:00,
2013-10-02 15:18:00,74.0,59.2,29.85,South,173,4.0,12.0,60,0.00,,,0.00,520,HR-IXPWINDi_r2_v1.2.,2013-10-02 22:18:00,
2013-10-02 15:23:00,72.6,59.2,29.85,South,173,2.0,10.0,63,0.00,,,0.00,508,HR-IXPWINDi_r2_v1.2.,2013-10-02 22:23:00,
2013-10-02 15:28:00,72.9,59.1,29.85,SSE,164,4.0,9.0,62,0.00,,,0.00,499,HR-IXPWINDi_r2_v1.2.,2013-10-02 22:28:00,
2013-10-02 15:33:00,71.8,58.5,29.85,SSW,212,7.0,9.0,63,0.00,,,0.00,483,HR-IXPWINDi_r2_v1.2.,2013-10-02 22:33:00,
2013-10-02 15:39:00,71.9,59.4,29.85,SSW,192,7.0,9.0,65,0.00,,,0.00,469,HR-IXPWINDi_r2_v1.2.,2013-10-02 22:39:00,
2013-10-02 15:44:00,72.1,58.8,29.85,South,190,2.0,9.0,63,0.00,,,0.00,452,HR-IXPWINDi_r2_v1.2.,2013-10-02 22:44:00,
2013-10-02 15:49:00,71.7,59.2,29.85,NNE,31,1.0,10.0,65,0.00,,,0.00,439,HR-IXPWINDi_r2_v1.2.,2013-10-02 22:49:00,
2013-10-02 15:54:00,72.6,59.7,29.85,SSW,194,8.0,10.0,64,0.00,,,0.00,425,HR-IXPWINDi_r2_v1.2.,2013-10-02 22:54:00,
2013-10-02 15:59:00,72.3,58.5,29.85,South,181,8.0,13.0,62,0.00,,,0.00,411,HR-IXPWINDi_r2_v1.2.,2013-10-02 22:59:00,
2013-10-02 16:04:00,71.5,58.6,29.85,South,184,7.0,13.0,64,0.00,,,0.00,397,HR-IXPWINDi_r2_v1.2.,2013-10-02 23:04:00,
2013-10-02 16:09:00,70.6,58.6,29.85,SW,217,5.0,10.0,66,0.00,,,0.00,381,HR-IXPWINDi_r2_v1.2.,2013-10-02 23:09:00,
2013-10-02 16:14:00,71.0,59.0,29.85,South,184,2.0,10.0,66,0.00,,,0.00,367,HR-IXPWINDi_r2_v1.2.,2013-10-02 23:14:00,
2013-10-02 16:20:00,71.3,59.3,29.85,South,178,3.0,9.0,66,0.00,,,0.00,350,HR-IXPWINDi_r2_v1.2.,2013-10-02 23:20:00,
2013-10-02 16:25:00,71.0,58.2,29.85,SE,145,5.0,11.0,64,0.00,,,0.00,336,HR-IXPWINDi_r2_v1.2.,2013-10-02 23:25:00,
2013-10-02 16:30:00,70.3,58.3,29.84,SE,128,3.0,11.0,66,0.00,,,0.00,320,HR-IXPWINDi_r2_v1.2.,2013-10-02 23:30:00,
2013-10-02 16:35:00,69.5,58.4,29.85,SSW,198,4.0,9.0,68,0.00,,,0.00,304,HR-IXPWINDi_r2_v1.2.,2013-10-02 23:35:00,
2013-10-02 16:40:00,69.9,59.2,29.84,SE,132,1.0,9.0,69,0.00,,,0.00,287,HR-IXPWINDi_r2_v1.2.,2013-10-02 23:40:00,
2013-10-02 16:46:00,70.7,59.1,29.84,South,169,5.0,8.0,67,0.00,,,0.00,271,HR-IXPWINDi_r2_v1.2.,2013-10-02 23:46:00,
2013-10-02 16:51:00,70.2,58.7,29.84,SSE,165,3.0,7.0,67,0.00,,,0.00,250,HR-IXPWINDi_r2_v1.2.,2013-10-02 23:51:00,
2013-10-02 16:56:00,68.8,58.6,29.84,SSE,165,0.0,9.0,70,0.00,,,0.00,234,HR-IXPWINDi_r2_v1.2.,2013-10-02 23:56:00,
2013-10-02 17:01:00,67.8,58.8,29.84,South,173,5.0,9.0,73,0.00,,,0.00,199,HR-IXPWINDi_r2_v1.2.,2013-10-03 00:01:00,
2013-10-02 17:06:00,67.2,58.6,29.85,South,182,3.0,9.0,74,0.00,,,0.00,109,HR-IXPWINDi_r2_v1.2.,2013-10-03 00:06:00,
2013-10-02 17:11:00,66.7,58.5,29.84,South,174,2.0,7.0,75,0.00,,,0.00,54,HR-IXPWINDi_r2_v1.2.,2013-10-03 00:11:00,
2013-10-02 17:17:00,66.6,58.7,29.85,SW,222,3.0,7.0,76,0.00,,,0.00,51,HR-IXPWINDi_r2_v1.2.,2013-10-03 00:17:00,
2013-10-02 17:22:00,66.2,58.3,29.85,South,173,4.0,8.0,76,0.00,,,0.00,44,HR-IXPWINDi_r2_v1.2.,2013-10-03 00:22:00,
2013-10-02 17:27:00,66.0,58.5,29.85,SSE,161,1.0,8.0,77,0.00,,,0.00,39,HR-IXPWINDi_r2_v1.2.,2013-10-03 00:27:00,
2013-10-02 17:32:00,65.7,58.6,29.85,SSW,195,6.0,7.0,78,0.00,,,0.00,37,HR-IXPWINDi_r2_v1.2.,2013-10-03 00:32:00,
2013-10-02 17:37:00,65.4,58.7,29.85,South,184,5.0,7.0,79,0.00,,,0.00,33,HR-IXPWINDi_r2_v1.2.,2013-10-03 00:37:00,
2013-10-02 17:43:00,65.0,58.6,29.85,SW,217,3.0,7.0,80,0.00,,,0.00,32,HR-IXPWINDi_r2_v1.2.,2013-10-03 00:43:00,
2013-10-02 17:48:00,64.6,58.2,29.85,SSE,167,1.0,7.0,80,0.00,,,0.00,30,HR-IXPWINDi_r2_v1.2.,2013-10-03 00:48:00,
2013-10-02 17:53:00,64.4,58.4,29.85,South,169,3.0,7.0,81,0.00,,,0.00,26,HR-IXPWINDi_r2_v1.2.,2013-10-03 00:53:00,
2013-10-02 17:58:00,64.1,58.1,29.85,South,182,5.0,7.0,81,0.00,,,0.00,25,HR-IXPWINDi_r2_v1.2.,2013-10-03 00:58:00,
2013-10-02 18:03:00,63.7,58.0,29.85,SSW,205,4.0,7.0,82,0.00,,,0.00,23,HR-IXPWINDi_r2_v1.2.,2013-10-03 01:03:00,
2013-10-02 18:08:00,63.4,57.7,29.85,SSE,150,2.0,6.0,82,0.00,,,0.00,19,HR-IXPWINDi_r2_v1.2.,2013-10-03 01:08:00,
2013-10-02 18:13:00,63.2,57.9,29.85,South,173,1.0,6.0,83,0.00,,,0.00,18,HR-IXPWINDi_r2_v1.2.,2013-10-03 01:13:00,
2013-10-02 18:18:00,63.0,57.7,29.86,South,173,0.0,4.0,83,0.00,,,0.00,14,HR-IXPWINDi_r2_v1.2.,2013-10-03 01:18:00,
2013-10-02 18:23:00,62.9,57.9,29.86,SSW,205,1.0,3.0,84,0.00,,,0.00,12,HR-IXPWINDi_r2_v1.2.,2013-10-03 01:23:00,
2013-10-02 18:28:00,62.5,57.5,29.86,SW,217,0.0,3.0,84,0.00,,,0.00,9,HR-IXPWINDi_r2_v1.2.,2013-10-03 01:28:00,
2013-10-02 18:34:00,62.2,57.2,29.86,South,171,4.0,4.0,84,0.00,,,0.00,5,HR-IXPWINDi_r2_v1.2.,2013-10-03 01:34:00,
2013-10-02 18:39:00,62.0,57.0,29.86,South,169,2.0,4.0,84,0.00,,,0.00,0,HR-IXPWINDi_r2_v1.2.,2013-10-03 01:39:00,
2013-10-02 18:44:00,61.8,57.2,29.86,South,169,3.0,4.0,85,0.00,,,0.00,0,HR-IXPWINDi_r2_v1.2.,2013-10-03 01:44:00,
2013-10-02 18:50:00,61.6,57.0,29.86,South,175,0.0,3.0,85,0.00,,,0.00,0,HR-IXPWINDi_r2_v1.2.,2013-10-03 01:50:00,
2013-10-02 18:55:00,61.4,56.8,29.86,South,174,1.0,3.0,85,0.00,,,0.00,0,HR-IXPWINDi_r2_v1.2.,2013-10-03 01:55:00,
2013-10-02 19:00:00,61.2,56.9,29.86,South,174,0.0,3.0,86,0.00,,,0.00,0,HR-IXPWINDi_r2_v1.2.,2013-10-03 02:00:00,
2013-10-02 19:05:00,60.9,56.6,29.86,South,174,0.0,3.0,86,0.00,,,0.00,0,HR-IXPWINDi_r2_v1.2.,2013-10-03 02:05:00,
2013-10-02 19:10:00,60.7,56.4,29.86,South,174,0.0,1.0,86,0.00,,,0.00,0,HR-IXPWINDi_r2_v1.2.,2013-10-03 02:10:00,
2013-10-02 19:15:00,60.4,56.4,29.86,South,174,0.0,1.0,87,0.00,,,0.00,0,HR-IXPWINDi_r2_v1.2.,2013-10-03 02:15:00,
2013-10-02 19:20:00,60.2,56.2,29.86,South,174,0.0,1.0,87,0.00,,,0.00,0,HR-IXPWINDi_r2_v1.2.,2013-10-03 02:20:00,
2013-10-02 19:25:00,60.1,56.5,29.86,South,174,0.0,1.0,88,0.00,,,0.00,0,HR-IXPWINDi_r2_v1.2.,2013-10-03 02:25:00,
2013-10-02 19:31:00,59.7,56.1,29.86,South,174,0.0,0.0,88,0.00,,,0.00,0,HR-IXPWINDi_r2_v1.2.,2013-10-03 02:31:00,
2013-10-02 19:36:00,59.4,55.8,29.86,South,174,0.0,0.0,88,0.00,,,0.00,0,HR-IXPWINDi_r2_v1.2.,2013-10-03 02:36:00,
2013-10-02 19:41:00,59.1,55.5,29.87,South,174,0.0,1.0,88,0.00,,,0.00,0,HR-IXPWINDi_r2_v1.2.,2013-10-03 02:41:00,
2013-10-02 19:47:00,59.1,55.8,29.87,South,174,0.0,1.0,89,0.00,,,0.00,0,HR-IXPWINDi_r2_v1.2.,2013-10-03 02:47:00,
2013-10-02 19:52:00,58.9,55.3,29.87,South,174,0.0,0.0,88,0.00,,,0.00,0,HR-IXPWINDi_r2_v1.2.,2013-10-03 02:52:00,
2013-10-02 19:57:00,58.5,54.9,29.87,South,174,0.0,0.0,88,0.00,,,0.00,0,HR-IXPWINDi_r2_v1.2.,2013-10-03 02:57:00,
2013-10-02 20:02:00,58.2,54.9,29.88,South,174,0.0,0.0,89,0.00,,,0.00,0,HR-IXPWINDi_r2_v1.2.,2013-10-03 03:02:00,
2013-10-02 20:08:00,57.9,54.6,29.88,South,174,0.0,0.0,89,0.00,,,0.00,0,HR-IXPWINDi_r2_v1.2.,2013-10-03 03:08:00,
2013-10-02 20:13:00,57.6,54.3,29.88,South,174,0.0,0.0,89,0.00,,,0.00,0,HR-IXPWINDi_r2_v1.2.,2013-10-03 03:13:00,
2013-10-02 20:18:00,57.4,54.1,29.88,South,174,0.0,0.0,89,0.00,,,0.00,0,HR-IXPWINDi_r2_v1.2.,2013-10-03 03:18:00,
2013-10-02 20:23:00,57.4,54.1,29.88,South,174,0.0,0.0,89,0.00,,,0.00,0,HR-IXPWINDi_r2_v1.2.,2013-10-03 03:23:00,
2013-10-02 20:28:00,57.0,54.0,29.88,South,174,0.0,0.0,90,0.00,,,0.00,0,HR-IXPWINDi_r2_v1.2.,2013-10-03 03:28:00,
2013-10-02 20:33:00,56.9,53.9,29.88,South,174,0.0,0.0,90,0.00,,,0.00,0,HR-IXPWINDi_r2_v1.2.,2013-10-03 03:33:00,
2013-10-02 20:39:00,56.8,53.8,29.88,South,174,0.0,0.0,90,0.00,,,0.00,0,HR-IXPWINDi_r2_v1.2.,2013-10-03 03:39:00,
2013-10-02 20:44:00,56.7,53.7,29.89,South,174,0.0,1.0,90,0.00,,,0.00,0,HR-IXPWINDi_r2_v1.2.,2013-10-03 03:44:00,
2013-10-02 20:49:00,56.4,53.4,29.89,South,174,0.0,1.0,90,0.00,,,0.00,0,HR-IXPWINDi_r2_v1.2.,2013-10-03 03:49:00,
2013-10-02 20:54:00,56.3,53.3,29.89,South,174,0.0,0.0,90,0.00,,,0.00,0,HR-IXPWINDi_r2_v1.2.,2013-10-03 03:54:00,
2013-10-02 20:59:00,56.3,53.3,29.89,South,174,0.0,0.0,90,0.00,,,0.00,0,HR-IXPWINDi_r2_v1.2.,2013-10-03 03:59:00,
2013-10-02 21:01:00,56.2,53.2,29.89,South,174,0.0,0.0,90,0.00,,,0.00,0,HR-IXPWINDi_r2_v1.2.,2013-10-03 04:01:00,
2013-10-02 21:06:00,55.9,52.9,29.89,South,174,0.0,0.0,90,0.00,,,0.00,0,HR-IXPWINDi_r2_v1.2.,2013-10-03 04:06:00,
2013-10-02 21:11:00,56.2,53.5,29.89,South,174,0.0,0.0,91,0.00,,,0.00,0,HR-IXPWINDi_r2_v1.2.,2013-10-03 04:11:00,
2013-10-02 21:16:00,56.1,53.1,29.89,South,174,0.0,0.0,90,0.00,,,0.00,0,HR-IXPWINDi_r2_v1.2.,2013-10-03 04:16:00,
2013-10-02 21:22:00,55.9,52.9,29.89,South,174,0.0,0.0,90,0.00,,,0.00,0,HR-IXPWINDi_r2_v1.2.,2013-10-03 04:22:00,
2013-10-02 21:27:00,55.7,53.0,29.89,South,174,0.0,0.0,91,0.00,,,0.00,0,HR-IXPWINDi_r2_v1.2.,2013-10-03 04:27:00,
2013-10-02 21:32:00,55.4,52.8,29.89,South,174,0.0,0.0,91,0.00,,,0.00,0,HR-IXPWINDi_r2_v1.2.,2013-10-03 04:32:00,
2013-10-02 21:37:00,55.3,52.7,29.89,South,174,0.0,0.0,91,0.00,,,0.00,0,HR-IXPWINDi_r2_v1.2.,2013-10-03 04:37:00,
2013-10-02 21:42:00,55.3,52.7,29.89,South,174,0.0,0.0,91,0.00,,,0.00,0,HR-IXPWINDi_r2_v1.2.,2013-10-03 04:42:00,
2013-10-02 21:47:00,55.1,52.5,29.89,South,174,0.0,0.0,91,0.00,,,0.00,0,HR-IXPWINDi_r2_v1.2.,2013-10-03 04:47:00,
2013-10-02 21:52:00,55.1,52.5,29.89,South,174,0.0,1.0,91,0.00,,,0.00,0,HR-IXPWINDi_r2_v1.2.,2013-10-03 04:52:00,
2013-10-02 21:58:00,55.6,53.2,29.89,West,277,0.0,1.0,92,0.00,,,0.00,0,HR-IXPWINDi_r2_v1.2.,2013-10-03 04:58:00,
2013-10-02 22:03:00,56.0,53.3,29.89,NW,310,0.0,4.0,91,0.00,,,0.00,0,HR-IXPWINDi_r2_v1.2.,2013-10-03 05:03:00,
2013-10-02 22:08:00,55.8,53.1,29.89,NW,310,1.0,4.0,91,0.00,,,0.00,0,HR-IXPWINDi_r2_v1.2.,2013-10-03 05:08:00,
2013-10-02 22:13:00,55.7,53.0,29.89,NW,310,0.0,3.0,91,0.00,,,0.00,0,HR-IXPWINDi_r2_v1.2.,2013-10-03 05:13:00,
2013-10-02 22:18:00,55.5,53.1,29.89,NW,310,0.0,3.0,92,0.00,,,0.00,0,HR-IXPWINDi_r2_v1.2.,2013-10-03 05:18:00,
2013-10-02 22:23:00,55.7,53.3,29.89,NW,310,0.0,1.0,92,0.00,,,0.00,0,HR-IXPWINDi_r2_v1.2.,2013-10-03 05:23:00,
2013-10-02 22:29:00,55.2,52.6,29.89,NW,310,0.0,1.0,91,0.00,,,0.00,0,HR-IXPWINDi_r2_v1.2.,2013-10-03 05:29:00,
2013-10-02 22:34:00,54.9,52.3,29.88,NW,310,0.0,0.0,91,0.00,,,0.00,0,HR-IXPWINDi_r2_v1.2.,2013-10-03 05:34:00,
2013-10-02 22:39:00,54.4,51.8,29.89,NW,310,0.0,0.0,91,0.00,,,0.00,0,HR-IXPWINDi_r2_v1.2.,2013-10-03 05:39:00,
2013-10-02 22:44:00,53.9,51.3,29.88,NW,310,0.0,0.0,91,0.00,,,0.00,0,HR-IXPWINDi_r2_v1.2.,2013-10-03 05:44:00,
2013-10-02 22:49:00,53.9,51.6,29.88,NW,310,0.0,1.0,92,0.00,,,0.00,0,HR-IXPWINDi_r2_v1.2.,2013-10-03 05:49:00,
2013-10-02 22:55:00,53.8,51.5,29.89,NW,310,0.0,1.0,92,0.00,,,0.00,0,HR-IXPWINDi_r2_v1.2.,2013-10-03 05:55:00,
2013-10-02 23:00:00,53.6,51.3,29.89,NW,310,0.0,1.0,92,0.00,,,0.00,0,HR-IXPWINDi_r2_v1.2.,2013-10-03 06:00:00,
2013-10-02 23:05:00,53.5,51.2,29.89,NW,310,0.0,1.0,92,0.00,,,0.00,0,HR-IXPWINDi_r2_v1.2.,2013-10-03 06:05:00,
2013-10-02 23:10:00,53.7,51.4,29.89,NW,310,0.0,1.0,92,0.00,,,0.00,0,HR-IXPWINDi_r2_v1.2.,2013-10-03 06:10:00,
2013-10-02 23:15:00,53.5,51.2,29.89,NW,310,0.0,0.0,92,0.00,,,0.00,0,HR-IXPWINDi_r2_v1.2.,2013-10-03 06:15:00,
2013-10-02 23:20:00,53.3,51.0,29.89,NW,310,0.0,0.0,92,0.00,,,0.00,0,HR-IXPWINDi_r2_v1.2.,2013-10-03 06:20:00,
2013-10-02 23:25:00,53.0,50.7,29.88,NW,310,0.0,1.0,92,0.00,,,0.00,0,HR-IXPWINDi_r2_v1.2.,2013-10-03 06:25:00,
2013-10-02 23:31:00,53.2,50.9,29.88,NW,310,0.0,1.0,92,0.00,,,0.00,0,HR-IXPWINDi_r2_v1.2.,2013-10-03 06:31:00,
2013-10-02 23:36:00,53.0,50.7,29.88,NW,310,0.0,1.0,92,0.00,,,0.00,0,HR-IXPWINDi_r2_v1.2.,2013-10-03 06:36:00,
2013-10-02 23:41:00,52.9,50.6,29.88,NW,310,0.0,0.0,92,0.00,,,0.00,0,HR-IXPWINDi_r2_v1.2.,2013-10-03 06:41:00,
2013-10-02 23:46:00,52.6,50.6,29.88,NW,310,0.0,0.0,93,0.00,,,0.00,0,HR-IXPWINDi_r2_v1.2.,2013-10-03 06:46:00,
2013-10-02 23:51:00,52.7,50.7,29.88,NW,310,0.0,0.0,93,0.00,,,0.00,0,HR-IXPWINDi_r2_v1.2.,2013-10-03 06:51:00,
2013-10-02 23:56:00,52.7,50.7,29.88,NW,310,0.0,0.0,93,0.00,,,0.00,0,HR-IXPWINDi_r2_v1.2.,2013-10-03 06:56:00,